When you browse on this site, cookies collect data to enhance your experience and personalize the content and advertising you see.
Visit our Privacy Policy to learn more. By continuing to use the site, you agree to this use of cookies and data.
  • Em Portugal
  • Lista de países
  • Para 7 dias
  • Temperatura da água
  • Mapas de satélite
  • Mapa do tempo
  • Widgets de tempo
  • user-avatar
    Iniciar Sessão

    Previsão horária em Podrabalina

    Hoje, 18 Janeiro, Sexta-feira

    Tempo Temperatura Precipitação Vento Pressão Humidade
    00:00 -2°C° 0 mm 5 m/s 734 mmHg 91%
    01:00 -2°C° 0 mm 5 m/s 734 mmHg 92%
    02:00 -3°C° 0 mm 4 m/s 733 mmHg 93%
    03:00 -2°C° 0.1 mm 4 m/s 733 mmHg 94%
    04:00 -2°C° 0.1 mm 4 m/s 733 mmHg 95%
    05:00 -2°C° 0.1 mm 4 m/s 733 mmHg 96%
    06:00 -1°C° 0.6 mm 4 m/s 733 mmHg 96%
    07:00 -1°C° 0.6 mm 4 m/s 733 mmHg 96%
    08:00 -2°C° 0 mm 6 m/s 733 mmHg 95%
    09:00 -3°C° 0.9 mm 6 m/s 734 mmHg 93%
    10:00 -4°C° 0.9 mm 6 m/s 735 mmHg 90%
    11:00 -5°C° 0.9 mm 6 m/s 736 mmHg 87%
    12:00 -5°C° 0 mm 6 m/s 737 mmHg 86%
    13:00 -5°C° 0 mm 5 m/s 738 mmHg 85%
    14:00 -3°C° 0 mm 4 m/s 739 mmHg 83%
    15:00 -4°C° 0 mm 4 m/s 740 mmHg 84%
    16:00 -5°C° 0 mm 4 m/s 741 mmHg 85%
    17:00 -5°C° 0 mm 3 m/s 742 mmHg 86%
    18:00 -7°C° 0 mm 4 m/s 742 mmHg 87%
    19:00 -7°C° 0 mm 4 m/s 743 mmHg 88%
    20:00 -7°C° 0 mm 4 m/s 743 mmHg 89%
    21:00 -7°C° 0 mm 4 m/s 743 mmHg 89%
    22:00 -7°C° 0 mm 4 m/s 744 mmHg 88%
    23:00 -8°C° 0 mm 4 m/s 744 mmHg 88%

    Amanhã, 19 Janeiro, Sábado

    Tempo Temperatura Precipitação Vento Pressão Humidade
    00:00 -8°C° 0 mm 4 m/s 745 mmHg 87%
    01:00 -8°C° 0 mm 4 m/s 745 mmHg 87%
    02:00 -7°C° 0 mm 5 m/s 745 mmHg 86%
    03:00 -7°C° 0 mm 5 m/s 745 mmHg 88%
    04:00 -7°C° 0 mm 5 m/s 746 mmHg 89%
    05:00 -7°C° 0 mm 5 m/s 746 mmHg 90%
    06:00 -7°C° 0 mm 5 m/s 746 mmHg 91%
    07:00 -7°C° 0 mm 5 m/s 746 mmHg 92%
    08:00 -8°C° 0 mm 4 m/s 746 mmHg 93%
    09:00 -7°C° 0 mm 4 m/s 747 mmHg 92%
    10:00 -7°C° 0 mm 4 m/s 747 mmHg 92%
    11:00 -5°C° 0 mm 4 m/s 748 mmHg 91%
    12:00 -4°C° 0 mm 4 m/s 748 mmHg 91%
    13:00 -4°C° 0 mm 4 m/s 748 mmHg 91%
    14:00 -3°C° 0 mm 4 m/s 748 mmHg 90%
    15:00 -4°C° 0 mm 4 m/s 748 mmHg 91%
    16:00 -4°C° 0 mm 3 m/s 748 mmHg 91%
    17:00 -4°C° 0 mm 3 m/s 748 mmHg 92%
    18:00 -5°C° 0 mm 3 m/s 748 mmHg 93%
    19:00 -5°C° 0 mm 3 m/s 748 mmHg 93%
    20:00 -5°C° 0 mm 4 m/s 748 mmHg 94%
    21:00 -6°C° 0 mm 3 m/s 748 mmHg 94%
    22:00 -6°C° 0 mm 3 m/s 748 mmHg 94%
    23:00 -7°C° 0 mm 3 m/s 748 mmHg 94%

    Depois de amanhã, 20 Janeiro, Domingo

    Tempo Temperatura Precipitação Vento Pressão Humidade
    00:00 -7°C° 0 mm 3 m/s 748 mmHg 94%
    01:00 -7°C° 0 mm 3 m/s 748 mmHg 94%
    02:00 -7°C° 0 mm 3 m/s 748 mmHg 94%
    03:00 -7°C° 0 mm 3 m/s 747 mmHg 94%
    04:00 -7°C° 0 mm 3 m/s 747 mmHg 95%
    05:00 -7°C° 0 mm 3 m/s 747 mmHg 95%
    06:00 -7°C° 0 mm 3 m/s 747 mmHg 95%
    07:00 -7°C° 0 mm 3 m/s 747 mmHg 95%
    08:00 -8°C° 0 mm 3 m/s 747 mmHg 95%
    09:00 -8°C° 0 mm 4 m/s 747 mmHg 94%
    10:00 -7°C° 0 mm 4 m/s 746 mmHg 93%
    11:00 -5°C° 0 mm 4 m/s 746 mmHg 92%
    12:00 -5°C° 0 mm 4 m/s 746 mmHg 91%
    13:00 -4°C° 0 mm 4 m/s 746 mmHg 90%
    14:00 -5°C° 0 mm 5 m/s 746 mmHg 90%
    15:00 -4°C° 0.2 mm 4 m/s 746 mmHg 91%
    16:00 -4°C° 0.2 mm 4 m/s 746 mmHg 92%
    17:00 -4°C° 0.2 mm 4 m/s 746 mmHg 93%
    18:00 -4°C° 0.1 mm 3 m/s 746 mmHg 93%
    19:00 -4°C° 0.1 mm 3 m/s 746 mmHg 93%
    20:00 -4°C° 0.1 mm 2 m/s 747 mmHg 93%
    21:00 -5°C° 0 mm 2 m/s 747 mmHg 92%
    22:00 -6°C° 0 mm 2 m/s 747 mmHg 91%
    23:00 -7°C° 0 mm 2 m/s 747 mmHg 90%

    21 Janeiro, Segunda-feira

    Tempo Temperatura Precipitação Vento Pressão Humidade
    00:00 -8°C° 0 mm 2 m/s 748 mmHg 89%
    01:00 -8°C° 0 mm 2 m/s 748 mmHg 88%
    02:00 -8°C° 0 mm 2 m/s 748 mmHg 88%
    03:00 -8°C° 0 mm 2 m/s 749 mmHg 87%
    04:00 -8°C° 0 mm 2 m/s 749 mmHg 87%
    05:00 -9°C° 0 mm 2 m/s 749 mmHg 87%
    06:00 -9°C° 0 mm 2 m/s 749 mmHg 86%
    07:00 -9°C° 0 mm 2 m/s 750 mmHg 85%
    08:00 -9°C° 0 mm 2 m/s 750 mmHg 84%
    09:00 -8°C° 0 mm 2 m/s 750 mmHg 84%
    10:00 -7°C° 0 mm 2 m/s 750 mmHg 83%
    11:00 -6°C° 0 mm 2 m/s 751 mmHg 82%
    12:00 -5°C° 0 mm 2 m/s 751 mmHg 82%
    13:00 -6°C° 0 mm 3 m/s 751 mmHg 81%
    14:00 -5°C° 0 mm 3 m/s 750 mmHg 81%
    15:00 -6°C° 0 mm 3 m/s 750 mmHg 83%
    16:00 -7°C° 0 mm 3 m/s 750 mmHg 85%
    17:00 -7°C° 0 mm 3 m/s 750 mmHg 86%
    18:00 -8°C° 0 mm 3 m/s 750 mmHg 87%
    19:00 -8°C° 0 mm 3 m/s 750 mmHg 87%
    20:00 -8°C° 0 mm 3 m/s 749 mmHg 88%
    21:00 -7°C° 0.1 mm 3 m/s 749 mmHg 90%
    22:00 -7°C° 0.1 mm 4 m/s 749 mmHg 92%
    23:00 -5°C° 0.1 mm 4 m/s 749 mmHg 94%

    22 Janeiro, Terça-feira

    Tempo Temperatura Precipitação Vento Pressão Humidade
    00:00 -5°C° 0.1 mm 4 m/s 748 mmHg 94%
    01:00 -5°C° 0.1 mm 4 m/s 748 mmHg 93%
    02:00 -5°C° 0.1 mm 4 m/s 747 mmHg 93%
    03:00 -5°C° 0.2 mm 4 m/s 747 mmHg 93%
    04:00 -5°C° 0.2 mm 4 m/s 746 mmHg 93%
    05:00 -6°C° 0.2 mm 5 m/s 746 mmHg 93%
    06:00 -5°C° 0.1 mm 4 m/s 745 mmHg 93%
    07:00 -5°C° 0.1 mm 4 m/s 745 mmHg 93%
    08:00 -5°C° 0.1 mm 4 m/s 745 mmHg 93%
    09:00 -5°C° 0 mm 4 m/s 745 mmHg 93%
    10:00 -5°C° 0 mm 4 m/s 745 mmHg 93%
    11:00 -5°C° 0 mm 3 m/s 745 mmHg 93%
    12:00 -5°C° 0 mm 4 m/s 744 mmHg 91%
    13:00 -5°C° 0 mm 4 m/s 744 mmHg 90%
    14:00 -4°C° 0 mm 4 m/s 743 mmHg 88%
    15:00 -5°C° 0 mm 4 m/s 743 mmHg 89%
    16:00 -5°C° 0 mm 4 m/s 742 mmHg 90%
    17:00 -6°C° 0 mm 3 m/s 742 mmHg 90%
    18:00 -7°C° 0 mm 4 m/s 742 mmHg 90%
    19:00 -8°C° 0 mm 4 m/s 741 mmHg 90%
    20:00 -8°C° 0 mm 4 m/s 741 mmHg 90%
    21:00 -8°C° 0 mm 4 m/s 741 mmHg 89%
    22:00 -9°C° 0 mm 4 m/s 740 mmHg 89%
    23:00 -9°C° 0 mm 4 m/s 740 mmHg 89%

    23 Janeiro, Quarta-feira

    Tempo Temperatura Precipitação Vento Pressão Humidade
    00:00 -9°C° 0 mm 4 m/s 739 mmHg 89%
    01:00 -9°C° 0 mm 4 m/s 739 mmHg 90%
    02:00 -10°C° 0 mm 5 m/s 739 mmHg 90%
    03:00 -10°C° 0 mm 5 m/s 738 mmHg 91%
    04:00 -9°C° 0 mm 4 m/s 738 mmHg 92%
    05:00 -10°C° 0 mm 4 m/s 738 mmHg 92%
    06:00 -10°C° 0 mm 4 m/s 737 mmHg 92%
    07:00 -10°C° 0 mm 4 m/s 737 mmHg 92%
    08:00 -11°C° 0 mm 5 m/s 737 mmHg 92%
    09:00 -11°C° 0 mm 5 m/s 737 mmHg 92%
    10:00 -10°C° 0 mm 5 m/s 737 mmHg 91%
    11:00 -10°C° 0 mm 5 m/s 737 mmHg 90%
    12:00 -10°C° 0 mm 6 m/s 736 mmHg 90%
    13:00 -9°C° 0 mm 6 m/s 736 mmHg 90%
    14:00 -9°C° 0 mm 6 m/s 736 mmHg 90%
    15:00 -9°C° 0 mm 6 m/s 736 mmHg 90%
    16:00 -8°C° 0 mm 5 m/s 735 mmHg 90%
    17:00 -10°C° 0 mm 5 m/s 735 mmHg 90%
    18:00 -8°C° 0 mm 5 m/s 735 mmHg 90%
    19:00 -7°C° 0 mm 5 m/s 735 mmHg 90%
    20:00 -6°C° 0 mm 5 m/s 735 mmHg 90%
    21:00 -6°C° 0 mm 5 m/s 735 mmHg 90%
    22:00 -6°C° 0 mm 6 m/s 735 mmHg 90%
    23:00 -6°C° 0 mm 6 m/s 735 mmHg 90%
    Mostrar mais